Location: Newark
(34.9500°N, 139.9667°E)
Time: 16:05:21
(UTC+00:00)

Vanguard 2 - Visible Passes

Search period start: 10 December 2019 00:00
Search period end: 20 December 2019 00:00
Orbit: 553 x 2938 km, 32.9° (Epoch: 09 December)

Date Brightness Start Highest point End Pass type
(mag) Time Alt. Az. Time Alt. Az. Time Alt. Az.
10 Dec 11.1 16:01:27 34° E 16:01:27 34° E 16:09:25 10° E visible
10 Dec 10.1 18:02:51 76° WSW 18:04:47 83° S 18:21:34 10° E visible
10 Dec 10.3 20:04:15 22° W 20:18:02 75° SSW 20:31:59 10° ESE visible
11 Dec 10.9 16:18:13 40° E 16:18:13 40° E 16:27:41 10° E visible
11 Dec 10.1 18:19:36 67° WSW 18:23:07 84° S 18:39:43 10° E visible
11 Dec 10.3 20:21:01 17° W 20:36:06 68° SSW 20:49:46 10° ESE visible
12 Dec 10.7 16:34:58 48° E 16:34:58 48° E 16:45:57 10° E visible
12 Dec 10.2 18:36:22 59° W 18:41:25 82° S 18:57:50 10° ESE visible
12 Dec 10.4 20:37:46 13° W 20:54:02 60° SSW 21:07:24 10° SE visible
13 Dec 11.9 14:50:20 11° E 14:50:20 11° E 14:50:56 10° E visible
13 Dec 10.5 16:51:44 56° E 16:51:44 56° E 17:04:12 10° E visible
13 Dec 10.2 18:53:07 50° W 18:59:40 79° SSW 19:15:53 10° ESE visible
13 Dec 10.6 20:55:01 10° W 21:11:49 51° SSW 21:24:48 10° SE visible
14 Dec 11.7 15:07:05 15° E 15:07:05 15° E 15:09:18 10° E visible
14 Dec 10.4 17:08:29 64° ESE 17:08:29 64° ESE 17:22:28 10° E visible
14 Dec 10.3 19:09:53 43° W 19:17:52 73° SSW 19:33:49 10° ESE visible
14 Dec 10.8 21:13:34 10° W 21:29:28 42° SW 21:41:57 10° SSE visible
15 Dec 11.6 15:23:52 20° E 15:23:52 20° E 15:27:38 10° E visible
15 Dec 10.2 17:25:15 73° ESE 17:25:15 73° ESE 17:40:41 10° E visible
15 Dec 10.4 19:26:40 36° W 19:35:56 66° SSW 19:51:35 10° SE visible
16 Dec 11.4 15:40:39 24° E 15:40:39 24° E 15:45:57 10° E visible
16 Dec 10.1 17:42:03 79° SSE 17:42:03 79° SSE 17:58:51 10° ESE visible
16 Dec 10.5 19:43:28 29° W 19:53:53 58° SSW 20:09:09 10° SE visible
17 Dec 11.2 15:57:28 29° E 15:57:28 29° E 16:04:17 10° E visible
17 Dec 10.1 17:58:52 76° SSW 17:59:19 77° SSW 18:16:55 10° ESE visible
17 Dec 10.6 20:00:16 23° W 20:11:43 49° SSW 20:26:30 10° SE visible
18 Dec 11.1 16:14:18 35° E 16:14:18 35° E 16:22:36 10° E visible
18 Dec 10.1 18:15:42 68° SW 18:17:30 70° SSW 18:34:51 10° ESE visible
18 Dec 10.8 20:17:07 18° W 20:29:25 40° SW 20:43:32 10° SSE visible
19 Dec 10.9 16:31:10 41° ESE 16:31:10 41° ESE 16:40:52 10° E visible
19 Dec 10.2 18:32:34 58° WSW 18:35:33 63° SSW 18:52:35 10° SE visible
19 Dec 11.0 20:33:59 13° W 20:47:02 32° SW 21:00:10 10° SSE visible
